Weather History for KLWS - March, 2013

Change the Weather History Date:

Friday, March 22, 2013

  Actual Average Record
Temperature  
Mean Temperature 38 °F 47 °F  
Max Temperature 47 °F 57 °F 76 °F (1911)
Min Temperature 29 °F 37 °F 16 °F (1898)
Degree Days  
Heating Degree Days 27 18  
Month to date heating degree days 406 458  
Since 1 July heating degree days 3845 4313  
Cooling Degree Days 0 0  
Month to date cooling degree days 0 0  
Year to date cooling degree days 0 0  
Moisture  
Dew Point 25 °F    
Average Humidity 59    
Maximum Humidity 78    
Minimum Humidity 40    
Precipitation  
Precipitation 0.01 in 0.04 in 0.48 in (1996)
Month to date precipitation 0.26 0.81  
Year to date precipitation 1.84 2.67  
Snow  
Snow 0.00 in 0.00 in 0.20 in (1913)
Month to date snowfall 0.0 0.7  
Since 1 July snowfall 2.6 10.5  
Snow Depth 0.00 in    
Sea Level Pressure  
Sea Level Pressure 30.18 in    
Wind  
Wind Speed 7 mph (WSW)    
Max Wind Speed 24 mph    
Max Gust Speed 31 mph    
Visibility 9 miles    
Events Snow    
T = Trace of Precipitation, MM = Missing Value Source: NWS Daily Summary

Daily Weather History Graph

Daily Weather History Graph

Search for Another Location

Airport or City:

Trip Planner

Search our weather history database for the weather conditions in past years. The results will help you decide how hot, cold, wet, or windy it might be!

Date:

Astronomy

Mar. 22, 2013 Rise Set
Actual Time 6:46 AM PDT 7:03 PM PDT
Civil Twilight 6:16 AM PDT 7:33 PM PDT
Nautical Twilight 5:41 AM PDT 8:09 PM PDT
Astronomical Twilight 5:04 AM PDT 8:46 PM PDT
Moon 2:21 PM PDT (3/22) 4:04 AM PDT (3/22)
Length of Visible Light 13h 17m
Length of Day
12h 17m
Waxing Gibbous, 78% of the Moon is Illuminated
Mar 22
Waxing Gibbous
Mar 27
Full
Apr 2
Last Quarter
Apr 10
New
Apr 18
First Quarter

Hourly Weather History & Observations

Time (PDT) Temp. Windchill Dew Point Humidity Pressure Visibility Wind Dir Wind Speed Gust Speed Precip Events Conditions
12:56 AM 35.1 °F - 27.0 °F 72% 30.09 in 10.0 mi Calm Calm - N/A   Mostly Cloudy
1:56 AM 36.0 °F - 26.1 °F 67% 30.08 in 10.0 mi Calm Calm - N/A   Overcast
2:56 AM 35.1 °F 32.2 °F 25.0 °F 67% 30.08 in 10.0 mi WNW 3.5 mph - N/A   Scattered Clouds
3:56 AM 33.1 °F 30.0 °F 26.1 °F 75% 30.09 in 10.0 mi SE 3.5 mph - N/A   Mostly Cloudy
4:56 AM 32.0 °F 27.5 °F 27.0 °F 82% 30.11 in 10.0 mi SSE 4.6 mph - N/A   Overcast
5:56 AM 32.0 °F - 25.0 °F 75% 30.12 in 10.0 mi Calm Calm - N/A   Scattered Clouds
6:56 AM 33.1 °F 28.7 °F 25.0 °F 72% 30.14 in 10.0 mi SSW 4.6 mph - N/A   Overcast
7:56 AM 35.1 °F 32.2 °F 27.0 °F 72% 30.15 in 10.0 mi SSE 3.5 mph - N/A   Overcast
8:56 AM 37.0 °F - 27.0 °F 67% 30.17 in 10.0 mi Calm Calm - N/A   Scattered Clouds
9:56 AM 37.9 °F 35.5 °F 23.0 °F 55% 30.17 in 10.0 mi North 3.5 mph - N/A   Scattered Clouds
10:56 AM 39.0 °F - 23.0 °F 53% 30.18 in 10.0 mi Calm Calm - N/A   Mostly Cloudy
11:56 AM 41.0 °F 34.3 °F 23.0 °F 49% 30.17 in 10.0 mi NW 11.5 mph 18.4 mph N/A   Mostly Cloudy
12:56 PM 43.0 °F 36.4 °F 21.0 °F 42% 30.17 in 10.0 mi NW 12.7 mph - N/A   Mostly Cloudy
1:56 PM 41.0 °F 34.7 °F 19.9 °F 43% 30.17 in 10.0 mi WNW 10.4 mph - N/A   Scattered Clouds
2:56 PM 45.0 °F 38.9 °F 24.1 °F 44% 30.17 in 10.0 mi SW 12.7 mph 20.7 mph N/A   Mostly Cloudy
3:56 PM 45.0 °F 37.6 °F 21.0 °F 39% 30.17 in 10.0 mi West 17.3 mph 23.0 mph N/A   Overcast
4:56 PM 37.0 °F 26.7 °F 27.0 °F 67% 30.21 in 5.0 mi NNW 19.6 mph 31.1 mph 0.00 in Snow Light Snow
5:11 PM 35.6 °F 28.0 °F 26.6 °F 70% 30.18 in 1.8 mi NW 10.4 mph 20.7 mph 0.00 in Snow Light Snow
5:22 PM 37.4 °F - 26.6 °F 65% 30.17 in 3.0 mi Calm Calm - 0.01 in Snow Light Snow
5:56 PM 37.9 °F - 26.1 °F 62% 30.22 in 10.0 mi Calm Calm - 0.01 in   Scattered Clouds
6:56 PM 36.0 °F 29.0 °F 27.0 °F 70% 30.24 in 10.0 mi WNW 9.2 mph - N/A   Overcast
7:56 PM 34.0 °F 28.0 °F 27.0 °F 75% 30.26 in 10.0 mi SW 6.9 mph - N/A   Clear
8:56 PM 33.8 °F 29.6 °F 26.6 °F 75% 30.24 in 10.0 mi SW 4.6 mph - N/A   Mostly Cloudy
9:56 PM 30.9 °F 25.2 °F 25.0 °F 79% 30.29 in 10.0 mi SE 5.8 mph - N/A   Mostly Cloudy
10:56 PM 32.0 °F 28.7 °F 25.0 °F 75% 30.30 in 10.0 mi South 3.5 mph - N/A   Overcast
11:56 PM 30.0 °F 26.5 °F 24.1 °F 79% 30.32 in 10.0 mi SSE 3.5 mph - N/A   Partly Cloudy